| time (UTC) | temp F | wind direction | speed knots | gust knots | rain 1hr in | rain 24hr in | rain mn in | humidity % | barometer mb |
| 20260507091801 | 50 | 30 | 1.7 | 7.0 | 0.00 | 0.23 | 0.00 | 76 | 1015.3 |
| 20260507091301 | 50 | 88 | 2.6 | 7.0 | 0.00 | 0.23 | 0.00 | 76 | 1015.3 |
| 20260507090759 | 50 | 63 | 3.5 | 7.0 | 0.00 | 0.23 | 0.00 | 76 | 1015.2 |
| 20260507090257 | 50 | 59 | 2.6 | 6.1 | 0.00 | 0.23 | 0.00 | 76 | 1015.1 |
| 20260507085258 | 50 | 40 | 3.5 | 10.4 | 0.00 | 0.23 | 0.00 | 76 | 1015.0 |
| 20260507084755 | 51 | 46 | 2.6 | 7.8 | 0.00 | 0.23 | 0.00 | 75 | 1014.9 |
| 20260507084257 | 50 | 45 | 2.6 | 7.0 | 0.00 | 0.23 | 0.00 | 76 | 1014.9 |
| 20260507083754 | 50 | 87 | 3.5 | 8.7 | 0.00 | 0.23 | 0.00 | 76 | 1014.9 |
| 20260507083254 | 50 | 39 | 3.5 | 8.7 | 0.00 | 0.23 | 0.00 | 76 | 1014.8 |
| 20260507082754 | 50 | 44 | 3.5 | 8.7 | 0.00 | 0.23 | 0.00 | 77 | 1014.8 |
| 20260507082255 | 49 | 59 | 3.5 | 8.7 | 0.00 | 0.23 | 0.00 | 80 | 1014.8 |
| 20260507081750 | 49 | 39 | 4.3 | 8.7 | 0.00 | 0.23 | 0.00 | 80 | 1014.7 |
| 20260507081243 | 49 | 21 | 3.5 | 7.8 | 0.00 | 0.23 | 0.00 | 82 | 1014.8 |
| 20260507080738 | 49 | 51 | 2.6 | 7.8 | 0.00 | 0.23 | 0.00 | 83 | 1014.6 |
| 20260507080239 | 49 | 57 | 3.5 | 7.8 | 0.00 | 0.23 | 0.00 | 81 | 1014.6 |
| 20260507075725 | 49 | 40 | 3.5 | 7.8 | 0.00 | 0.23 | 0.00 | 82 | 1014.6 |
| 20260507075219 | 49 | 49 | 2.6 | 6.1 | 0.00 | 0.23 | 0.00 | 82 | 1014.5 |
| 20260507074714 | 49 | 55 | 2.6 | 6.1 | 0.00 | 0.23 | 0.00 | 81 | 1014.4 |
| 20260507074207 | 49 | 50 | 2.6 | 8.7 | 0.00 | 0.23 | 0.00 | 81 | 1014.4 |
| 20260507073701 | 48 | 28 | 3.5 | 8.7 | 0.00 | 0.23 | 0.00 | 82 | 1014.3 |
| 20260507073155 | 48 | 17 | 3.5 | 7.8 | 0.00 | 0.23 | 0.00 | 83 | 1014.2 |
| 20260507072652 | 48 | 19 | 2.6 | 7.0 | 0.00 | 0.23 | 0.00 | 84 | 1014.2 |
| 20260507071637 | 48 | 28 | 4.3 | 8.7 | 0.00 | 0.23 | 0.00 | 85 | 1014.2 |
| 20260507071131 | 48 | 47 | 4.3 | 7.8 | 0.00 | 0.23 | 0.00 | 84 | 1014.2 |
| 20260507070630 | 48 | 33 | 3.5 | 7.8 | 0.00 | 0.23 | 0.00 | 84 | 1014.1 |
| 20260507070131 | 48 | 53 | 2.6 | 7.8 | 0.00 | 0.23 | 0.00 | 85 | 1014.1 |
| 20260507065631 | 48 | 30 | 2.6 | 7.0 | 0.00 | 0.23 | 0.00 | 85 | 1014.1 |
| 20260507065131 | 48 | 29 | 2.6 | 7.0 | 0.00 | 0.23 | 0.00 | 86 | 1014.1 |
| 20260507064630 | 48 | 53 | 1.7 | 5.2 | 0.00 | 0.23 | 0.00 | 87 | 1014.0 |
| 20260507064130 | 48 | 16 | 1.7 | 6.1 | 0.00 | 0.23 | 0.00 | 88 | 1014.0 |
| 20260507063628 | 47 | 47 | 3.5 | 7.0 | 0.00 | 0.23 | 0.00 | 88 | 1013.9 |
| 20260507063127 | 47 | 35 | 2.6 | 7.0 | 0.00 | 0.23 | 0.00 | 89 | 1013.9 |
| 20260507062126 | 47 | 30 | 3.5 | 6.1 | 0.00 | 0.23 | 0.00 | 89 | 1013.8 |
| 20260507061626 | 46 | 26 | 2.6 | 6.1 | 0.00 | 0.23 | 0.00 | 90 | 1013.7 |
| 20260507061125 | 46 | 42 | 2.6 | 7.0 | 0.00 | 0.23 | 0.00 | 90 | 1013.7 |
| 20260507060126 | 46 | 40 | 2.6 | 6.1 | 0.00 | 0.23 | 0.00 | 90 | 1013.6 |
| 20260507055626 | 46 | 31 | 1.7 | 5.2 | 0.00 | 0.23 | 0.00 | 91 | 1013.5 |
| 20260507055127 | 45 | 357 | 2.6 | 6.1 | 0.00 | 0.23 | 0.00 | 91 | 1013.5 |
| 20260507054620 | 45 | 20 | 2.6 | 7.0 | 0.00 | 0.23 | 0.00 | 91 | 1013.4 |
| 20260507054115 | 45 | 26 | 2.6 | 7.0 | 0.00 | 0.23 | 0.00 | 91 | 1013.4 |
| 20260507053616 | 45 | 7 | 1.7 | 6.1 | 0.00 | 0.23 | 0.00 | 91 | 1013.4 |
| 20260507053114 | 45 | 12 | 1.7 | 5.2 | 0.00 | 0.23 | 0.00 | 91 | 1013.3 |
| 20260507051615 | 44 | 12 | 1.7 | 6.1 | 0.00 | 0.23 | 0.00 | 92 | 1013.2 |
| 20260507051113 | 44 | 346 | 1.7 | 3.5 | 0.00 | 0.23 | 0.00 | 92 | 1013.1 |
| 20260507050613 | 44 | 341 | 1.7 | 4.3 | 0.00 | 0.23 | 0.00 | 92 | 1013.1 |
| 20260507050115 | 44 | 339 | 1.7 | 6.1 | 0.00 | 0.23 | 0.00 | 92 | 1013.0 |
| 20260507045613 | 44 | 338 | 1.7 | 6.1 | 0.00 | 0.23 | 0.00 | 92 | 1012.9 |
| 20260507045114 | 43 | 358 | 1.7 | 5.2 | 0.00 | 0.23 | 0.00 | 92 | 1012.8 |
| 20260507044614 | 43 | 351 | 1.7 | 5.2 | 0.00 | 0.23 | 0.00 | 92 | 1012.8 |
| 20260507044114 | 43 | 1 | 1.7 | 3.5 | 0.00 | 0.23 | 0.00 | 92 | 1012.7 |
| 20260507043613 | 43 | 357 | 1.7 | 3.5 | 0.00 | 0.23 | 0.00 | 92 | 1012.7 |
| 20260507042612 | 42 | 359 | 0.9 | 2.6 | 0.00 | 0.23 | 0.00 | 93 | 1012.7 |
| 20260507042114 | 42 | 359 | 0.0 | 1.7 | 0.00 | 0.23 | 0.00 | 93 | 1012.6 |
| 20260507041612 | 42 | 359 | 0.0 | 0.9 | 0.00 | 0.23 | 0.00 | 92 | 1012.6 |
| 20260507041114 | 42 | 359 | 0.0 | 0.9 | 0.00 | 0.23 | 0.00 | 93 | 1012.5 |
| 20260507040613 | 41 | 358 | 0.0 | 0.9 | 0.00 | 0.23 | 0.00 | 93 | 1012.5 |
| 20260507040116 | 41 | 358 | 0.0 | 1.7 | 0.00 | 0.23 | 0.00 | 92 | 1012.5 |
| 20260507035614 | 41 | 358 | 0.0 | 1.7 | 0.00 | 0.23 | 0.00 | 92 | 1012.5 |
| 20260507034611 | 41 | 358 | 0.0 | 0.9 | 0.00 | 0.23 | 0.00 | 92 | 1012.3 |
| 20260507034109 | 41 | 358 | 0.0 | 0.9 | 0.00 | 0.23 | 0.00 | 92 | 1012.3 |
| 20260507033610 | 41 | 358 | 0.0 | 1.7 | 0.00 | 0.23 | 0.00 | 92 | 1012.3 |
| 20260507033108 | 40 | 358 | 0.0 | 1.7 | 0.00 | 0.23 | 0.00 | 92 | 1012.3 |
| 20260507032614 | 40 | 358 | 0.0 | 0.9 | 0.00 | 0.23 | 0.00 | 92 | 1012.3 |
| 20260507032108 | 40 | 358 | 0.0 | 1.7 | 0.00 | 0.23 | 0.00 | 92 | 1012.2 |
| 20260507031605 | 40 | 358 | 0.0 | 1.7 | 0.00 | 0.23 | 0.00 | 91 | 1012.1 |
| 20260507031106 | 40 | 358 | 0.9 | 1.7 | 0.00 | 0.23 | 0.00 | 91 | 1012.0 |
| 20260507030604 | 40 | 359 | 0.0 | 1.7 | 0.00 | 0.23 | 0.00 | 91 | 1012.0 |
| 20260507030112 | 40 | 358 | 0.0 | 1.7 | 0.00 | 0.23 | 0.00 | 91 | 1012.0 |
| 20260507025559 | 41 | 358 | 0.0 | 1.7 | 0.00 | 0.23 | 0.00 | 90 | 1011.9 |
| 20260507025051 | 41 | 358 | 0.0 | 1.7 | 0.00 | 0.23 | 0.00 | 90 | 1011.9 |
| 20260507024547 | 41 | 358 | 0.0 | 1.7 | 0.00 | 0.23 | 0.00 | 90 | 1011.9 |
| 20260507024041 | 41 | 358 | 0.0 | 1.7 | 0.00 | 0.23 | 0.00 | 90 | 1011.9 |
| 20260507023533 | 41 | 358 | 0.0 | 1.7 | 0.00 | 0.23 | 0.00 | 90 | 1011.8 |
| 20260507023027 | 42 | 358 | 0.0 | 0.9 | 0.00 | 0.23 | 0.00 | 89 | 1011.9 |
| 20260507022520 | 42 | 358 | 0.0 | 1.7 | 0.00 | 0.23 | 0.00 | 90 | 1011.8 |
| 20260507022014 | 42 | 358 | 0.0 | 2.6 | 0.00 | 0.23 | 0.00 | 90 | 1011.8 |
| 20260507021508 | 42 | 359 | 0.0 | 2.6 | 0.00 | 0.23 | 0.00 | 90 | 1011.7 |
| 20260507021002 | 42 | 358 | 0.9 | 2.6 | 0.00 | 0.23 | 0.00 | 89 | 1011.7 |
| 20260507020456 | 42 | 357 | 0.9 | 2.6 | 0.00 | 0.23 | 0.00 | 90 | 1011.7 |
| 20260507015950 | 42 | 357 | 0.9 | 2.6 | 0.00 | 0.23 | 0.00 | 89 | 1011.7 |
| 20260507015444 | 42 | 357 | 0.9 | 2.6 | 0.00 | 0.23 | 0.00 | 89 | 1011.6 |
| 20260507014432 | 43 | 357 | 0.9 | 2.6 | 0.00 | 0.23 | 0.00 | 89 | 1011.5 |
| 20260507013421 | 43 | 357 | 0.9 | 2.6 | 0.00 | 0.23 | 0.00 | 89 | 1011.5 |
| 20260507012914 | 43 | 357 | 0.0 | 1.7 | 0.00 | 0.23 | 0.00 | 89 | 1011.5 |
| 20260507012408 | 43 | 357 | 0.9 | 1.7 | 0.00 | 0.23 | 0.00 | 89 | 1011.5 |
| 20260507011902 | 44 | 357 | 0.9 | 1.7 | 0.00 | 0.23 | 0.00 | 89 | 1011.5 |
| 20260507011357 | 44 | 357 | 0.9 | 2.6 | 0.00 | 0.23 | 0.00 | 89 | 1011.4 |
| 20260507010345 | 44 | 356 | 0.0 | 1.7 | 0.00 | 0.23 | 0.00 | 89 | 1011.3 |
| 20260507005839 | 44 | 356 | 0.0 | 1.7 | 0.00 | 0.23 | 0.00 | 89 | 1011.3 |
| 20260507004834 | 45 | 356 | 0.0 | 1.7 | 0.00 | 0.23 | 0.00 | 88 | 1011.3 |
| 20260507004335 | 45 | 356 | 0.0 | 1.7 | 0.00 | 0.23 | 0.00 | 88 | 1011.2 |
| 20260507003834 | 45 | 356 | 0.0 | 1.7 | 0.00 | 0.23 | 0.00 | 88 | 1011.2 |
| 20260507003335 | 46 | 356 | 0.9 | 2.6 | 0.00 | 0.23 | 0.00 | 88 | 1011.2 |
| 20260507002834 | 46 | 356 | 0.9 | 2.6 | 0.00 | 0.23 | 0.00 | 88 | 1011.2 |
| 20260507002333 | 46 | 354 | 0.9 | 2.6 | 0.00 | 0.23 | 0.00 | 88 | 1011.1 |
| 20260507001831 | 46 | 354 | 0.9 | 3.5 | 0.00 | 0.23 | 0.00 | 88 | 1011.1 |
| 20260507000830 | 47 | 354 | 1.7 | 6.1 | 0.00 | 0.23 | 0.00 | 88 | 1011.0 |
| 20260507000332 | 47 | 355 | 1.7 | 6.1 | 0.00 | 0.23 | 0.00 | 89 | 1010.9 |
| 20260506235833 | 47 | 357 | 1.7 | 3.5 | 0.00 | 0.23 | 0.00 | 89 | 1010.9 |
| 20260506235331 | 47 | 352 | 1.7 | 5.2 | 0.00 | 0.23 | 0.00 | 89 | 1011.0 |
| 20260506234831 | 47 | 345 | 1.7 | 5.2 | 0.00 | 0.23 | 0.00 | 89 | 1010.9 |
| 20260506234329 | 47 | 355 | 1.7 | 4.3 | 0.00 | 0.23 | 0.00 | 89 | 1010.9 |
| 20260506233826 | 47 | 348 | 1.7 | 4.3 | 0.00 | 0.23 | 0.00 | 89 | 1010.8 |
| 20260506233328 | 47 | 330 | 1.7 | 5.2 | 0.00 | 0.23 | 0.00 | 89 | 1010.8 |
| 20260506232828 | 48 | 340 | 1.7 | 6.1 | 0.00 | 0.23 | 0.00 | 89 | 1010.8 |
| 20260506232325 | 48 | 338 | 1.7 | 6.1 | 0.00 | 0.23 | 0.00 | 89 | 1010.9 |
| 20260506231826 | 48 | 341 | 0.9 | 3.5 | 0.00 | 0.23 | 0.00 | 89 | 1010.9 |
| 20260506231332 | 48 | 341 | 0.9 | 3.5 | 0.00 | 0.23 | 0.00 | 89 | 1010.8 |
| 20260506230825 | 48 | 327 | 0.9 | 3.5 | 0.00 | 0.23 | 0.00 | 89 | 1010.8 |
| 20260506230325 | 48 | 325 | 1.7 | 5.2 | 0.00 | 0.23 | 0.00 | 89 | 1010.8 |
| 20260506225825 | 48 | 325 | 1.7 | 5.2 | 0.00 | 0.23 | 0.00 | 89 | 1010.7 |
| 20260506225326 | 48 | 333 | 1.7 | 3.5 | 0.00 | 0.23 | 0.00 | 89 | 1010.8 |
| 20260506224822 | 48 | 316 | 1.7 | 4.3 | 0.00 | 0.23 | 0.00 | 89 | 1010.7 |
| 20260506224320 | 48 | 311 | 1.7 | 4.3 | 0.00 | 0.23 | 0.00 | 89 | 1010.8 |
| 20260506223821 | 48 | 320 | 1.7 | 4.3 | 0.00 | 0.23 | 0.00 | 89 | 1010.8 |
| 20260506223321 | 49 | 320 | 0.9 | 3.5 | 0.00 | 0.23 | 0.00 | 89 | 1010.8 |
| 20260506222820 | 49 | 314 | 0.9 | 3.5 | 0.00 | 0.23 | 0.00 | 89 | 1010.7 |
| 20260506222319 | 49 | 315 | 1.7 | 3.5 | 0.00 | 0.23 | 0.00 | 89 | 1010.7 |
| 20260506221320 | 49 | 311 | 1.7 | 3.5 | 0.00 | 0.23 | 0.00 | 89 | 1010.7 |
| 20260506220820 | 49 | 305 | 1.7 | 4.3 | 0.00 | 0.23 | 0.00 | 89 | 1010.7 |
| 20260506220320 | 49 | 323 | 1.7 | 4.3 | 0.00 | 0.23 | 0.00 | 89 | 1010.8 |
| 20260506215821 | 49 | 323 | 1.7 | 3.5 | 0.00 | 0.23 | 0.23 | 89 | 1010.8 |
| 20260506215321 | 49 | 314 | 0.9 | 3.5 | 0.00 | 0.23 | 0.23 | 89 | 1010.7 |
| 20260506214321 | 49 | 326 | 0.9 | 2.6 | 0.00 | 0.23 | 0.23 | 89 | 1010.6 |
| 20260506213821 | 49 | 327 | 0.9 | 3.5 | 0.00 | 0.23 | 0.23 | 89 | 1010.6 |
| 20260506213318 | 49 | 326 | 0.9 | 3.5 | 0.00 | 0.23 | 0.23 | 89 | 1010.5 |
| 20260506212318 | 49 | 333 | 1.7 | 4.3 | 0.00 | 0.23 | 0.23 | 89 | 1010.4 |
| 20260506211817 | 49 | 311 | 0.9 | 3.5 | 0.00 | 0.23 | 0.23 | 89 | 1010.4 |
| 20260506210817 | 49 | 346 | 0.9 | 2.6 | 0.00 | 0.23 | 0.23 | 89 | 1010.3 |
| 20260506205817 | 49 | 347 | 0.0 | 1.7 | 0.00 | 0.23 | 0.23 | 89 | 1010.3 |
| 20260506205316 | 49 | 347 | 0.0 | 1.7 | 0.00 | 0.23 | 0.23 | 89 | 1010.3 |
| 20260506204813 | 49 | 347 | 0.0 | 0.0 | 0.00 | 0.23 | 0.23 | 89 | 1010.3 |
| 20260506204313 | 49 | 347 | 0.0 | 0.9 | 0.00 | 0.23 | 0.23 | 89 | 1010.2 |
| 20260506203814 | 48 | 347 | 0.0 | 0.9 | 0.00 | 0.23 | 0.23 | 88 | 1010.2 |
| 20260506203316 | 48 | 347 | 0.0 | 1.7 | 0.00 | 0.23 | 0.23 | 87 | 1010.2 |
| 20260506202812 | 48 | 347 | 0.9 | 1.7 | 0.00 | 0.23 | 0.23 | 87 | 1010.2 |
| 20260506202311 | 49 | 347 | 0.9 | 1.7 | 0.00 | 0.23 | 0.23 | 87 | 1010.2 |
| 20260506201810 | 49 | 347 | 0.0 | 1.7 | 0.00 | 0.23 | 0.23 | 87 | 1010.2 |
| 20260506200810 | 49 | 347 | 0.9 | 1.7 | 0.00 | 0.23 | 0.23 | 87 | 1010.2 |
| 20260506200311 | 49 | 347 | 0.9 | 1.7 | 0.00 | 0.23 | 0.23 | 87 | 1010.2 |
| 20260506195811 | 49 | 347 | 0.9 | 1.7 | 0.00 | 0.23 | 0.23 | 87 | 1010.2 |
| 20260506195311 | 49 | 347 | 0.9 | 1.7 | 0.00 | 0.23 | 0.23 | 87 | 1010.2 |
| 20260506194810 | 49 | 347 | 0.9 | 1.7 | 0.00 | 0.23 | 0.23 | 87 | 1010.2 |
| 20260506193811 | 49 | 347 | 0.0 | 0.9 | 0.00 | 0.23 | 0.23 | 86 | 1010.2 |
| 20260506193310 | 49 | 347 | 0.0 | 0.9 | 0.00 | 0.23 | 0.23 | 86 | 1010.2 |
| 20260506192812 | 49 | 347 | 0.0 | 0.9 | 0.00 | 0.23 | 0.23 | 86 | 1010.1 |
| 20260506192309 | 49 | 347 | 0.0 | 0.9 | 0.00 | 0.23 | 0.23 | 86 | 1010.0 |
| 20260506191808 | 49 | 347 | 0.0 | 0.9 | 0.00 | 0.23 | 0.23 | 86 | 1010.0 |
| 20260506191309 | 49 | 347 | 0.0 | 0.9 | 0.00 | 0.23 | 0.23 | 86 | 1009.9 |
| 20260506190806 | 49 | 347 | 0.0 | 0.9 | 0.00 | 0.23 | 0.23 | 86 | 1009.9 |
| 20260506184800 | 49 | 347 | 0.9 | 2.6 | 0.01 | 0.23 | 0.23 | 86 | 1009.7 |
| 20260506184301 | 49 | 347 | 0.9 | 2.6 | 0.01 | 0.23 | 0.23 | 86 | 1009.6 |
| 20260506183759 | 49 | 347 | 0.0 | 1.7 | 0.01 | 0.23 | 0.23 | 86 | 1009.6 |
| 20260506183259 | 49 | 347 | 0.9 | 1.7 | 0.01 | 0.23 | 0.23 | 86 | 1009.5 |
| 20260506182753 | 49 | 347 | 0.9 | 1.7 | 0.01 | 0.23 | 0.23 | 86 | 1009.5 |
| 20260506181741 | 49 | 347 | 0.9 | 1.7 | 0.01 | 0.23 | 0.23 | 86 | 1009.5 |
| 20260506181235 | 49 | 347 | 0.9 | 2.6 | 0.01 | 0.23 | 0.23 | 86 | 1009.5 |
| 20260506180730 | 49 | 347 | 0.9 | 2.6 | 0.01 | 0.23 | 0.23 | 86 | 1009.5 |
| 20260506180223 | 49 | 347 | 0.9 | 3.5 | 0.02 | 0.23 | 0.23 | 86 | 1009.4 |
| 20260506175717 | 49 | 347 | 1.7 | 3.5 | 0.02 | 0.23 | 0.23 | 85 | 1009.3 |
| 20260506174200 | 49 | 11 | 0.9 | 5.2 | 0.01 | 0.22 | 0.22 | 86 | 1009.3 |
| 20260506173653 | 49 | 13 | 1.7 | 5.2 | 0.01 | 0.22 | 0.22 | 85 | 1009.2 |
| 20260506173147 | 49 | 336 | 1.7 | 4.3 | 0.01 | 0.22 | 0.22 | 85 | 1009.2 |
| 20260506172642 | 49 | 17 | 1.7 | 4.3 | 0.01 | 0.22 | 0.22 | 85 | 1009.2 |
| 20260506172135 | 49 | 58 | 1.7 | 6.1 | 0.02 | 0.22 | 0.22 | 85 | 1009.1 |
| 20260506171124 | 49 | 61 | 0.9 | 4.3 | 0.02 | 0.22 | 0.22 | 86 | 1009.0 |
| 20260506170617 | 49 | 57 | 0.9 | 2.6 | 0.01 | 0.21 | 0.22 | 86 | 1009.0 |
| 20260506170112 | 49 | 57 | 0.9 | 2.6 | 0.02 | 0.21 | 0.21 | 86 | 1009.0 |
| 20260506165059 | 49 | 51 | 0.9 | 4.3 | 0.02 | 0.21 | 0.21 | 86 | 1009.0 |
| 20260506164558 | 49 | 43 | 0.0 | 1.7 | 0.02 | 0.21 | 0.21 | 86 | 1009.1 |
| 20260506164044 | 49 | 43 | 0.9 | 2.6 | 0.02 | 0.21 | 0.21 | 86 | 1009.0 |
| 20260506163537 | 49 | 40 | 0.9 | 2.6 | 0.02 | 0.21 | 0.21 | 86 | 1009.0 |
| 20260506163031 | 49 | 37 | 0.9 | 2.6 | 0.02 | 0.21 | 0.21 | 86 | 1009.0 |
| 20260506162020 | 49 | 37 | 1.7 | 3.5 | 0.02 | 0.20 | 0.20 | 86 | 1009.0 |
| 20260506161008 | 49 | 37 | 0.9 | 2.6 | 0.03 | 0.20 | 0.20 | 86 | 1009.0 |
| 20260506160501 | 49 | 38 | 0.9 | 3.5 | 0.03 | 0.20 | 0.20 | 86 | 1009.0 |
| 20260506155956 | 49 | 38 | 1.7 | 3.5 | 0.03 | 0.20 | 0.20 | 85 | 1009.1 |
| 20260506155450 | 49 | 24 | 1.7 | 5.2 | 0.03 | 0.20 | 0.20 | 85 | 1009.1 |
| 20260506154948 | 49 | 22 | 2.6 | 5.2 | 0.03 | 0.20 | 0.20 | 84 | 1009.1 |
| 20260506152945 | 49 | 10 | 1.7 | 5.2 | 0.03 | 0.18 | 0.19 | 84 | 1009.1 |
| 20260506152445 | 49 | 16 | 1.7 | 5.2 | 0.03 | 0.18 | 0.18 | 84 | 1009.1 |
| 20260506151945 | 49 | 16 | 2.6 | 6.1 | 0.03 | 0.18 | 0.18 | 84 | 1009.1 |
| 20260506151446 | 49 | 34 | 1.7 | 6.1 | 0.03 | 0.17 | 0.17 | 84 | 1009.1 |
| 20260506150946 | 49 | 25 | 2.6 | 6.1 | 0.04 | 0.17 | 0.17 | 83 | 1009.2 |
| 20260506150445 | 49 | 352 | 3.5 | 6.1 | 0.04 | 0.17 | 0.17 | 83 | 1009.1 |
| 20260506145945 | 49 | 26 | 3.5 | 7.0 | 0.04 | 0.17 | 0.17 | 83 | 1009.1 |
| 20260506145446 | 49 | 6 | 2.6 | 7.0 | 0.04 | 0.17 | 0.17 | 83 | 1009.0 |
| 20260506144946 | 49 | 37 | 2.6 | 7.0 | 0.05 | 0.17 | 0.17 | 83 | 1009.1 |
| 20260506144446 | 48 | 42 | 3.5 | 8.7 | 0.05 | 0.16 | 0.16 | 82 | 1009.1 |
| 20260506143445 | 48 | 23 | 3.5 | 7.8 | 0.06 | 0.16 | 0.16 | 82 | 1009.0 |
| 20260506142945 | 48 | 10 | 3.5 | 7.8 | 0.05 | 0.15 | 0.15 | 83 | 1009.0 |
| 20260506142446 | 48 | 23 | 3.5 | 7.0 | 0.06 | 0.15 | 0.15 | 83 | 1009.0 |
| 20260506141946 | 48 | 41 | 2.6 | 7.0 | 0.06 | 0.15 | 0.15 | 83 | 1009.0 |
| 20260506141447 | 48 | 15 | 3.5 | 7.0 | 0.06 | 0.14 | 0.14 | 83 | 1008.9 |
| 20260506140944 | 48 | 14 | 3.5 | 7.0 | 0.05 | 0.13 | 0.13 | 83 | 1009.0 |
| 20260506135945 | 48 | 24 | 2.6 | 7.0 | 0.05 | 0.13 | 0.13 | 83 | 1009.0 |
| 20260506135448 | 48 | 11 | 2.6 | 7.0 | 0.05 | 0.13 | 0.13 | 83 | 1009.0 |
| 20260506134942 | 48 | 19 | 1.7 | 7.0 | 0.04 | 0.12 | 0.12 | 83 | 1009.0 |
| 20260506134441 | 48 | 5 | 1.7 | 6.1 | 0.04 | 0.11 | 0.12 | 83 | 1009.0 |
| 20260506133940 | 48 | 33 | 2.6 | 6.1 | 0.04 | 0.11 | 0.11 | 82 | 1009.0 |
| 20260506133442 | 48 | 32 | 3.5 | 7.0 | 0.04 | 0.10 | 0.10 | 82 | 1009.1 |
| 20260506132943 | 48 | 21 | 4.3 | 8.7 | 0.04 | 0.10 | 0.10 | 82 | 1009.1 |
| 20260506131940 | 48 | 13 | 3.5 | 8.7 | 0.05 | 0.09 | 0.09 | 81 | 1009.0 |
| 20260506131441 | 48 | 50 | 3.5 | 9.6 | 0.04 | 0.09 | 0.09 | 81 | 1009.0 |
| 20260506130944 | 48 | 20 | 4.3 | 9.6 | 0.05 | 0.09 | 0.09 | 80 | 1008.9 |
| 20260506130441 | 48 | 352 | 3.5 | 9.6 | 0.05 | 0.09 | 0.09 | 80 | 1008.9 |
| 20260506125938 | 48 | 23 | 3.5 | 9.6 | 0.05 | 0.08 | 0.08 | 80 | 1008.9 |
| 20260506125439 | 48 | 21 | 4.3 | 9.6 | 0.05 | 0.08 | 0.08 | 80 | 1008.9 |
| 20260506124938 | 48 | 24 | 4.3 | 9.6 | 0.05 | 0.08 | 0.08 | 80 | 1008.9 |
| 20260506124436 | 48 | 33 | 5.2 | 10.4 | 0.05 | 0.07 | 0.07 | 79 | 1008.8 |
| 20260506123435 | 48 | 37 | 5.2 | 8.7 | 0.05 | 0.06 | 0.07 | 79 | 1008.8 |
| 20260506122434 | 48 | 39 | 3.5 | 10.4 | 0.04 | 0.06 | 0.06 | 80 | 1008.8 |
| 20260506121935 | 48 | 13 | 3.5 | 7.0 | 0.03 | 0.05 | 0.06 | 80 | 1008.8 |
| 20260506121435 | 48 | 24 | 3.5 | 7.8 | 0.04 | 0.05 | 0.05 | 80 | 1008.8 |
| 20260506115433 | 48 | 32 | 6.1 | 9.6 | 0.02 | 0.03 | 0.03 | 77 | 1008.6 |
| 20260506114933 | 48 | 66 | 5.2 | 11.3 | 0.03 | 0.03 | 0.03 | 77 | 1008.6 |
| 20260506114428 | 48 | 41 | 5.2 | 11.3 | 0.02 | 0.02 | 0.02 | 77 | 1008.5 |
| 20260506113930 | 48 | 41 | 4.3 | 10.4 | 0.02 | 0.02 | 0.02 | 77 | 1008.5 |
| 20260506113416 | 48 | 33 | 4.3 | 9.6 | 0.02 | 0.02 | 0.02 | 77 | 1008.6 |
| 20260506112910 | 49 | 41 | 4.3 | 9.6 | 0.02 | 0.02 | 0.02 | 76 | 1008.5 |
| 20260506112403 | 49 | 12 | 4.3 | 9.6 | 0.02 | 0.02 | 0.02 | 77 | 1008.5 |
| 20260506111857 | 49 | 40 | 5.2 | 10.4 | 0.02 | 0.02 | 0.02 | 76 | 1008.5 |
| 20260506110847 | 49 | 45 | 4.3 | 8.7 | 0.01 | 0.01 | 0.01 | 75 | 1008.4 |
| 20260506105328 | 49 | 60 | 4.3 | 10.4 | 0.01 | 0.01 | 0.01 | 73 | 1008.4 |
| 20260506104823 | 49 | 39 | 5.2 | 10.4 | 0.00 | 0.00 | 0.00 | 73 | 1008.4 |
| 20260506104316 | 49 | 32 | 6.1 | 13.0 | 0.00 | 0.00 | 0.00 | 71 | 1008.4 |
| 20260506103810 | 49 | 36 | 7.0 | 13.9 | 0.00 | 0.00 | 0.00 | 71 | 1008.4 |
| 20260506102759 | 50 | 53 | 6.1 | 12.2 | 0.00 | 0.00 | 0.00 | 73 | 1008.4 |
| 20260506102252 | 50 | 354 | 7.8 | 13.0 | 0.00 | 0.00 | 0.00 | 71 | 1008.3 |
| 20260506101746 | 50 | 53 | 7.0 | 12.2 | 0.00 | 0.00 | 0.00 | 70 | 1008.3 |
| 20260506101240 | 50 | 28 | 7.0 | 13.9 | 0.00 | 0.00 | 0.00 | 70 | 1008.2 |
| 20260506100734 | 50 | 42 | 6.1 | 13.9 | 0.00 | 0.00 | 0.00 | 70 | 1008.2 |
| 20260506100228 | 50 | 8 | 6.1 | 13.9 | 0.00 | 0.00 | 0.00 | 69 | 1008.1 |
| 20260506095722 | 50 | 10 | 6.1 | 13.9 | 0.00 | 0.00 | 0.00 | 69 | 1008.1 |
| 20260506095217 | 50 | 3 | 7.0 | 13.9 | 0.00 | 0.00 | 0.00 | 70 | 1008.1 |
| 20260506094710 | 51 | 35 | 6.1 | 11.3 | 0.00 | 0.00 | 0.00 | 69 | 1008.1 |
| 20260506093659 | 51 | 29 | 6.1 | 12.2 | 0.00 | 0.00 | 0.00 | 66 | 1008.0 |
| 20260506093153 | 51 | 39 | 6.1 | 14.8 | 0.00 | 0.00 | 0.00 | 65 | 1008.1 |
| 20260506092649 | 51 | 28 | 5.2 | 14.8 | 0.00 | 0.00 | 0.00 | 64 | 1008.0 |
| 20260506092140 | 51 | 25 | 5.2 | 11.3 | 0.00 | 0.00 | 0.00 | 65 | 1008.0 |